Regional Weather Roundup
Issued by NWS

Home | Current Version | Previous Version | Graphics & Text | Print | Product List | Glossary On
Versions: 1 2 3 4 5 6 7 8 9 10 11 12 13 14 15 16 17 18 19 20 21 22 23 24 25 26 27 28 29 30 31 32 33 34 35 36 37 38 39 40 41 42 43 44 45 46 47 48 49 50
830
ASUS43 KDTX 041401
RWRMI
MICHIGAN HOURLY REGIONAL WEATHER ROUNDUP
NATIONAL WEATHER SERVICE DETROIT/PONTIAC MI
1000 AM EDT WED MAY 04 2016

NOTE: "FAIR" INDICATES FEW OR NO CLOUDS BELOW 12,000 FEET WITH NO
SIGNIFICANT WEATHER AND/OR OBSTRUCTION TO VISIBILITY.

MIZ047>049-052>055-059>063-066>070-074>076-081>083-041500-
SOUTHEAST LOWER MICHIGAN

CITY           SKY/WX    TMP DP  RH WIND       PRES   REMARKS
ADRIAN         CLOUDY    55  46  71 SW12      29.60S
ALMA           LGT RAIN  48  47  94 N14       29.58S
ANN ARBOR      PTSUNNY   54  46  74 S9        29.59F
BAD AXE        CLOUDY    53  45  73 S9        29.61S
CARO           LGT RAIN  55  44  67 SE6       29.58S
DETROIT CITY   CLOUDY    52  47  83 S6        29.62S
DETROIT        CLOUDY    58  48  69 S9        29.61F
FLINT          PTSUNNY   58  44  60 S10       29.57S
GROSSE ILE     CLOUDY    54  48  82 SE7       29.60F
HILLSDALE      LGT RAIN  51  45  78 S5        29.57S
HOWELL         PTSUNNY   55  45  69 S9        29.57S

CITY           SKY/WX    TMP DP  RH WIND       PRES   REMARKS
JACKSON        CLOUDY    53  45  74 SW12      29.57S
LAMBERTVILLE   CLOUDY    58  47  68 SW6       29.61S
LANSING        LGT RAIN  52  47  83 S7        29.57S
LAPEER         FAIR      55  47  73 SE8       29.59F
MASON          CLOUDY    53  46  76 S5        29.56S
MONROE         CLOUDY    56  49  76 S8        29.60F
MT. CLEMENS    CLOUDY    51  51  99 SE10      29.61S
PONTIAC        PTSUNNY   55  46  71 S8        29.58F
PORT HOPE        N/A     50  46  86 E10       29.59R
PORT HURON     CLOUDY    55  46  71 S12       29.62F
TRI CITIES     CLOUDY    55  47  74 S5        29.58S
MIDLAND        CLOUDY    50  47  90 N6        29.57S
TROY           CLOUDY    56  48  74 S7        29.62S
SAGINAW HB     CLOUDY    55  45  67 S6        29.56F
$$
MIZ043>046-050>051-056>058-064>065-071>073-077>080-041500-
SOUTHWEST LOWER MICHIGAN

CITY           SKY/WX    TMP DP  RH WIND       PRES   REMARKS
BATTLE CREEK   HVY RAIN  48  45  89 SW9G18    29.54F FOG
BENTON HARBOR  CLOUDY    43  39  86 NW10G26   29.67R
BIG RAPIDS     RAIN      43  40  88 N9        29.62R
COLDWATER      LGT RAIN  48  46  92 SW7       29.56S
FREMONT        RAIN      42  42  99 N14G20    29.63R
HOLLAND        LGT RAIN N/A N/A N/A NW10      29.64R
GRAND RAPIDS   RAIN      46  43  89 NW13      29.60R FOG
IONIA          RAIN      46  45  95 N8G17     29.57R
KALAMAZOO      LGT RAIN  47  42  83 NW17G24   29.58R
LUDINGTON      CLOUDY    40  39  95 N20G25    29.69R WCI  31
MARSHALL       LGT RAIN  50  47  88 S5        29.55F
MOUNT PLEASANT LGT RAIN  46  44  93 N9        29.57S
MUSKEGON       CLOUDY    44  39  82 N16G25    29.65R
$$
MIZ016>042-041500-
NORTHERN LOWER MICHIGAN

CITY           SKY/WX    TMP DP  RH WIND       PRES   REMARKS
ALPENA         LGT RAIN  48  45  89 N15       29.64R
BEAVER ISLAND  CLOUDY    41  38  88 N12G20    29.73R
BELLAIRE       MIX PCPN  43  41  93 N7        29.68R
CADILLAC       DRIZZLE   41  39  94 N12G20    29.62S
CHARLEVOIX     LGT RAIN  40  40  99 N12       29.73R WCI  33
FRANKFORT      CLOUDY    40  38  92 N14G24    29.71S WCI  32
GAYLORD        LGT RAIN  43  41  93 VRB6      29.65R
HARBOR SPRINGS DRIZZLE   44  42  94 N7        29.68R
HOUGHTON LAKE  LGT RAIN  44  41  89 N8        29.62R
MANISTEE       CLOUDY    43  36  75 N16       29.70R
OSCODA         CLOUDY    51  44  76 N7        29.61R
PELLSTON       LGT RAIN  44  41  89 N10       29.69R
ROGERS CITY    MIX PCPN  43  42  95 NW8       29.67R
TRAVERSE CITY  LGT RAIN  42  39  89 N14G20    29.67R
$$
MIZ007>008-015-041500-
EASTERN UPPER MICHIGAN

CITY           SKY/WX    TMP DP  RH WIND       PRES   REMARKS
KINROSS          N/A     43  43 100 NW12      29.69S
MACKINAC ISLAN LGT RAIN  42  42 100 N10G21    29.69R
NEWBERRY       CLOUDY    39  35  84 NW15G22   29.74R WCI  31
S. S. MARIE    CLOUDY    47  40  76 N7        29.70R
MUNISING         N/A     39  33  79 N26       29.81R WCI  28
$$
MIZ004>006-011>014-085-041500-
CENTRAL UPPER MICHIGAN

CITY           SKY/WX    TMP DP  RH WIND       PRES   REMARKS
MANISTIQUE     CLOUDY    41  33  75 N18G28    29.75R
ESCANABA       CLOUDY    41  32  70 N13G22    29.79S
MENOMINEE      CLOUDY    43  34  70 N13       29.81R
SAWYER-GWINN   FLURRIES  34  32  93 N17G24    29.80R WCI  23
$$
MIZ001>003-009>011-084-041500-
WESTERN UPPER MICHIGAN

CITY           SKY/WX    TMP DP  RH WIND       PRES   REMARKS
IRON MOUNTAIN  CLOUDY    41  32  70 N17       29.81R
HOUGHTON       CLOUDY    38  30  73 N16G31    29.88R WCI  29
COPPER HARBOR    N/A     38  33  82 NE16G25   29.88R WCI  29
IRONWOOD         N/A     43  34  70 N9G20     29.89R
$$

ABBREVIATIONS USED IN REMARKS
   TC - TEMPERATURE IN CELSIUS
  WCI - WIND CHILL INDEX
   HX - HEAT INDEX
  VSB - VISIBILITY





USA.gov is the U.S. government's official web portal to all federal, state and local government web resources and services.